Regional Weather Roundup
Issued by NWS

Home | Current Version | Previous Version | Text Only | Print | Product List | Glossary Off
Versions: 1 2 3 4 5 6 7 8 9 10 11 12 13 14 15 16 17 18 19 20 21 22 23 24 25 26 27 28 29 30 31 32 33 34 35 36 37 38 39 40 41 42 43 44 45 46 47 48 49 50

000
ASUS44 KMEG 030900
RWRTN
TENNESSEE HOURLY STATE WEATHER ROUNDUP
NATIONAL WEATHER SERVICE MEMPHIS TN
400 AM CDT SUN MAY 03 2015

TNZ002-004-019-021-049-052-054-088>092-031000-
WEST TENNESSEE

CITY           SKY/WX    TMP DP  RH WIND       PRES   REMARKS
MEMPHIS INTL   CLEAR     57  46  66 CALM      30.05R
NWS MEMPHIS      N/A     51 N/A N/A MISG        N/A
JACKSON        CLEAR     47  45  93 CALM      30.07R
DYERSBURG      CLEAR     54  39  58 CALM      30.07S
PARIS          CLEAR     48  46  93 CALM      30.07R
LEXINGTON      CLEAR     46  46 100 CALM      30.07R
$$

TNZ008-025-027-028-033-062-065-066-031000-
NORTH MIDDLE TENNESSEE

CITY           SKY/WX    TMP DP  RH WIND       PRES   REMARKS
NASHVILLE      CLEAR     52  49  89 CALM      30.09R
CLARKSVILLE    CLEAR     52  49  89 CALM      30.08R
COOKEVILLE     CLEAR     43  43 100 CALM      30.09S
CROSSVILLE     CLEAR     48  42  80 CALM      30.13R
$$

TNZ061-075-076-078-094-096-097-031000-
SOUTH MIDDLE TENNESSEE

CITY           SKY/WX    TMP DP  RH WIND       PRES   REMARKS
FAYETTEVILLE   CLEAR     50  48  93 CALM      30.09R
TULLAHOMA      CLEAR     46  45  93 CALM      30.10R
WINCHESTER     CLEAR     48  46  93 CALM      30.10R
MCMINNVILLE    CLEAR     46  46 100 CALM      30.10R
COLUMBIA       CLEAR     48  46  93 CALM      30.07S
SHELBYVILLE    CLEAR     50  48  93 CALM      30.10R
$$

TNZ017-018-042-046-047-031000-
NORTHEAST TENNESSEE

CITY           SKY/WX    TMP DP  RH WIND       PRES   REMARKS
TRI CITIES     PTCLDY    41  38  89 CALM      30.15R
ELIZABETHTON   MOSUNNY   45  36  70 NE3       30.15R
$$

TNZ012-013-036-069-073-074-031000-
CENTRAL EAST TENNESSEE

CITY           SKY/WX    TMP DP  RH WIND       PRES   REMARKS
KNOXVILLE      CLEAR     48  44  86 CALM      30.11R
OAK RIDGE      CLEAR     48  45  89 CALM      30.13R
GATLINBURG     SUNNY     45  43  93 CALM      30.12R
$$

TNZ083-085-099-031000-
SOUTHEAST TENNESSEE

CITY           SKY/WX    TMP DP  RH WIND       PRES   REMARKS
CHATTANOOGA    CLEAR     52  49  89 CALM      30.11R
$$

SKY/WX REPORTED AS FAIR MEANS FEW OR NO CLOUDS BELOW
12 THOUSAND FEET.



USA.gov is the U.S. government's official web portal to all federal, state and local government web resources and services.